Theta_e
300 299 299 298 297 296 297 297 296 295 296 296 295 295 295 297 296 298 299 301 300 303 312 310 310 309 308 308 307 305 303 305 307 308 309 309 308 311 310 310 311 313 314 315 316
300 300 299 297 296 296 297 298 297 294 294 294 294 295 295 294 297 297 300 301 301 302 305 310 311 309 307 307 307 303 303 305 307 308 307 310 310 310 309 308 309 312 313 314 316
299 300 299 298 298 298 298 298 297 295 294 294 294 296 299 298 297 299 305 306 310 311 310 310 312 312 307 306 306 304 305 306 307 308 308 307 309 311 307 307 309 311 313 313 316
299 298 298 297 298 299 299 299 299 295 293 293 293 298 300 299 296 299 307 309 311 310 309 312 313 310 305 306 306 303 304 306 306 307 309 308 310 307 308 310 311 311 310 313 316
299 298 297 297 299 299 299 299 298 297 295 293 294 299 301 300 299 297 301 308 308 310 309 311 313 309 307 305 306 305 305 306 306 307 307 308 306 308 307 311 312 310 310 312 314
299 297 297 297 297 298 298 298 297 297 294 293 293 298 301 300 297 297 302 303 305 303 303 307 311 311 308 307 306 306 306 307 307 306 306 305 306 307 308 311 311 311 310 312 313
299 297 296 297 297 297 297 297 297 297 293 293 293 298 299 299 297 298 298 297 297 298 305 309 309 310 308 307 309 308 307 308 307 306 306 308 307 307 308 310 309 309 309 310 312
296 297 297 297 297 297 297 296 293 292 292 293 295 298 300 299 298 299 303 303 305 304 301 309 310 311 309 307 306 306 306 308 308 307 307 309 311 309 310 310 309 309 309 309 310
296 297 296 296 297 297 296 297 292 292 293 294 296 295 301 300 300 302 305 296 296 298 303 305 308 309 306 308 307 305 309 307 308 308 308 309 310 309 311 309 309 309 308 310 310
297 296 296 296 297 296 296 295 292 292 294 294 294 298 297 300 301 297 294 294 294 294 295 303 307 308 309 308 307 308 307 306 306 307 308 308 309 309 309 309 308 308 307 308 309
296 296 296 296 296 296 296 293 293 294 293 293 294 294 294 293 293 294 295 295 295 295 295 296 305 308 307 308 307 306 307 307 307 307 308 309 310 310 308 307 306 307 308 308 309
296 296 296 296 296 294 294 293 294 294 295 294 294 294 294 294 294 295 296 296 295 295 297 299 302 303 306 307 308 308 308 307 306 306 306 308 308 307 307 308 309 308 308 308 310
296 295 296 295 295 294 293 293 294 294 295 293 294 294 294 294 294 295 296 296 297 296 296 296 299 304 303 306 307 307 308 307 308 306 306 307 308 307 306 306 308 308 309 309 309
295 295 295 295 295 293 293 293 293 293 294 292 293 294 295 295 296 297 294 296 297 296 297 296 296 296 297 303 305 307 306 306 307 308 308 306 310 308 308 307 307 309 309 309 308
294 295 294 294 294 294 293 292 293 293 288 291 293 296 293 293 294 293 294 296 297 296 298 296 298 300 300 301 306 307 305 306 307 308 308 308 309 308 306 307 307 308 309 309 311
294 294 293 293 292 292 294 293 293 286 284 291 292 293 293 293 294 294 294 296 298 298 298 298 298 303 304 304 306 306 306 306 306 308 308 306 308 306 306 307 307 307 308 309 310
294 293 292 292 292 294 294 293 284 285 289 289 292 292 294 293 294 295 296 293 297 297 294 299 298 298 299 300 301 303 307 308 308 309 308 305 306 306 304 305 306 306 306 308 309
294 293 293 292 292 294 293 287 283 282 286 291 293 293 294 294 293 292 294 295 296 299 299 301 297 296 300 299 299 303 306 307 309 308 305 304 306 307 305 305 304 305 306 307 307
294 293 292 292 292 294 292 282 283 287 293 293 292 292 292 294 295 291 291 294 295 298 298 299 298 298 299 301 300 302 304 305 304 286 295 299 303 304 302 302 303 304 303 305 306
293 292 292 292 293 293 288 288 284 292 292 292 292 294 294 293 295 293 293 294 299 299 299 298 297 301 301 302 302 303 304 306 306 308 308 302 300 303 298 302 302 301 300 303 305
293 292 291 292 292 292 284 281 288 291 291 292 293 293 294 295 296 295 293 296 298 298 298 296 298 298 304 301 299 304 304 301 304 306 305 306 305 295 300 298 296 296 298 297 299
293 288 292 291 291 281 286 283 291 291 291 291 294 294 296 295 296 294 295 296 297 297 295 297 299 297 300 301 299 300 301 302 301 297 297 296 298 286 285 285 286 290 295 297 297
293 292 292 291 290 284 283 287 289 290 290 287 293 295 295 296 296 293 296 296 296 295 295 297 298 300 301 303 302 302 299 299 297 295 298 300 298 283 282 287 289 291 295 295 296
293 291 291 291 291 289 289 285 285 290 290 292 293 294 293 292 291 293 296 296 295 295 298 298 298 301 301 301 302 303 303 303 303 300 295 299 297 292 292 290 289 289 294 294 294
293 291 291 292 289 289 284 287 290 286 289 291 290 292 293 294 289 285 291 294 293 295 294 293 293 298 298 294 297 299 296 296 302 303 307 295 297 295 294 296 294 289 292 293 293
292 292 291 291 290 290 288 286 291 291 289 291 291 292 292 294 294 294 294 294 295 292 292 290 295 294 295 295 296 296 293 295 294 290 288 289 301 291 288 293 293 295 293 292 292
291 292 292 291 289 287 287 289 290 291 291 291 292 292 291 292 293 294 295 294 294 294 294 295 294 293 294 293 296 293 293 293 294 292 292 293 293 290 288 290 290 289 291 292 293
Wind_Speed
24 23 23 23 24 24 24 25 25 25 25 26 27 27 27 29 31 29 31 29 23 16 16 15 18 15 16 13 16 9 3 7 10 12 12 2 5 11 6 8 13 17 11 10 18
25 26 25 25 26 27 28 29 28 27 27 28 28 28 29 31 34 38 35 31 29 22 23 23 19 14 9 13 10 7 6 11 13 16 6 5 3 3 3 6 7 11 16 13 20
24 26 26 28 27 28 28 29 30 30 30 30 30 30 29 30 34 18 8 7 7 1 11 18 23 15 15 12 13 9 18 12 16 19 17 9 5 8 4 3 11 18 26 20 26
25 26 28 28 28 29 30 31 32 31 30 29 29 29 26 26 8 7 7 5 4 7 9 18 16 14 5 11 19 7 12 25 18 23 7 5 5 4 12 12 10 11 18 24 31
25 28 28 28 29 31 32 33 33 33 33 28 25 26 25 12 33 35 21 19 20 25 19 14 21 15 7 6 13 14 2 14 30 31 23 24 10 11 11 24 21 17 13 26 30
27 28 28 28 29 31 32 33 35 35 34 28 24 23 22 22 33 16 12 14 14 21 27 23 23 26 10 10 14 3 17 27 23 17 11 13 14 13 14 28 24 24 22 26 32
27 31 29 30 31 33 34 36 36 36 33 32 31 26 27 46 35 37 32 34 37 32 30 29 30 22 8 5 25 23 18 17 17 12 7 9 18 21 23 31 28 24 29 28 32
30 27 28 29 31 34 35 37 36 35 36 35 21 17 24 24 28 20 9 17 14 20 28 24 25 32 26 10 6 4 4 17 18 13 8 12 27 8 33 36 34 33 31 29 34
29 28 29 30 32 32 35 36 37 35 31 24 15 14 16 15 13 10 8 21 33 30 18 25 26 20 9 15 10 7 17 13 10 5 8 16 21 13 22 28 31 30 35 40 39
26 29 30 30 32 34 36 36 36 30 12 14 18 8 15 19 13 22 42 43 33 36 30 20 13 11 13 13 21 26 12 4 7 9 15 14 28 12 23 29 26 27 32 37 41
29 27 30 30 32 35 36 38 23 12 19 24 32 37 47 46 33 30 24 28 25 22 19 26 15 22 28 25 25 23 17 16 12 7 10 23 28 19 14 12 13 22 27 33 37
28 29 30 32 33 33 27 32 16 21 20 29 37 39 45 40 31 31 4 2 4 7 11 12 25 32 27 20 22 25 24 23 10 10 9 15 22 9 10 14 25 25 30 34 33
29 30 31 33 35 25 34 19 19 24 11 27 22 21 18 9 12 22 9 9 8 10 14 20 28 16 28 28 26 25 25 24 21 4 14 3 23 17 7 11 19 22 32 37 40
30 32 32 34 28 33 26 18 21 23 5 7 4 5 2 6 6 12 24 13 6 10 12 15 26 26 25 21 30 28 28 24 22 14 19 10 20 18 18 13 12 24 26 35 37
30 32 33 31 33 27 18 18 18 14 5 6 5 5 25 14 16 34 26 13 20 19 6 11 13 17 20 30 23 26 23 23 22 17 16 10 9 14 9 9 16 21 28 30 42
30 33 34 35 29 13 16 18 13 4 7 7 6 10 17 31 24 14 13 10 18 12 13 25 20 9 12 5 15 21 8 16 13 13 20 21 17 22 7 13 12 16 32 28 35
32 34 33 32 19 13 14 14 4 3 8 8 20 22 21 27 14 3 5 5 4 4 4 5 18 23 14 11 10 6 12 9 10 12 16 17 15 22 9 23 28 24 19 32 35
32 34 35 18 10 10 12 4 3 5 8 12 17 27 20 11 6 3 7 8 3 5 6 4 8 6 11 21 9 9 12 8 10 4 12 6 9 11 23 26 13 20 32 36 31
33 36 29 6 9 8 11 3 6 5 5 14 25 7 6 5 5 5 4 4 4 2 2 5 6 8 10 5 20 8 11 1 1 1 4 3 4 7 5 10 15 18 23 33 28
34 33 11 8 9 12 1 6 5 6 18 17 18 8 11 13 5 3 3 5 3 4 1 3 8 5 2 5 6 4 7 6 9 5 9 3 3 5 3 13 14 12 9 17 26
25 13 7 12 19 5 2 7 7 21 19 5 12 17 15 10 5 3 5 6 4 6 2 3 4 6 5 5 8 9 4 3 2 2 2 1 4 7 9 8 9 9 10 15 20
14 3 16 20 3 1 2 5 15 19 19 11 9 15 13 5 4 3 5 4 9 6 7 5 3 5 8 2 4 3 5 6 3 4 2 4 6 2 1 3 2 7 17 15 10
11 8 12 9 3 2 6 8 6 5 7 5 5 7 16 7 6 4 4 6 12 8 5 3 3 5 7 0 1 3 2 3 4 3 7 5 5 4 4 6 4 6 12 7 5
10 3 5 4 6 3 4 7 5 9 10 9 13 13 14 9 2 7 8 6 17 13 14 4 3 4 5 8 4 3 2 2 12 3 3 6 7 7 9 6 7 7 8 5 5
5 5 7 5 4 5 2 5 10 6 6 13 5 6 18 8 5 3 5 12 5 6 5 3 3 3 12 9 3 5 7 7 3 2 3 4 2 4 10 8 6 11 8 5 7
7 8 6 5 6 2 4 5 12 7 3 9 6 20 16 12 14 20 14 11 8 3 4 4 4 5 6 6 7 4 11 8 8 5 4 5 2 9 10 16 8 12 12 7 8
18 20 10 3 2 1 4 6 13 15 13 14 18 19 12 14 15 27 29 26 17 12 7 3 3 4 4 2 3 5 9 6 3 6 3 7 6 12 10 11 11 17 15 12 12
Wind_Direction
2 0 358 355 350 346 343 340 337 334 333 332 331 326 324 318 310 303 287 288 281 263 254 256 243 234 218 218 217 198 181 203 210 218 227 94 180 221 220 221 189 191 216 214 198
356 357 354 351 346 344 342 339 335 331 329 328 324 322 320 317 312 301 301 283 267 261 251 242 244 229 215 209 208 181 214 218 223 223 227 229 213 227 215 177 215 210 216 205 193
355 353 350 349 347 343 340 335 332 330 328 327 325 323 322 321 320 304 328 4 93 305 271 253 241 243 231 218 194 207 234 227 236 239 238 231 236 235 189 244 222 219 216 203 196
352 345 345 346 344 341 338 335 331 327 323 324 325 321 320 313 284 308 317 303 188 262 304 241 232 216 211 219 219 239 222 231 240 245 239 216 211 212 204 234 261 264 252 205 198
346 339 343 344 341 338 334 332 329 326 324 324 327 325 320 291 262 274 275 252 257 267 275 255 224 220 229 208 232 249 240 230 233 243 239 251 231 234 231 263 261 258 242 215 213
340 339 341 340 336 332 331 329 327 324 324 324 319 313 305 265 285 300 280 269 277 265 265 253 234 231 255 231 225 227 226 244 252 248 228 232 255 236 244 258 251 249 239 221 218
338 338 341 340 337 332 330 327 324 321 321 320 317 300 275 255 275 285 280 276 276 271 271 258 244 238 238 261 248 249 263 269 245 246 242 233 261 241 243 255 259 250 238 231 226
334 338 336 334 331 330 327 325 327 325 321 319 304 294 260 268 290 294 303 292 316 309 258 263 255 243 239 279 303 231 215 242 244 233 216 179 253 227 235 242 248 242 240 232 230
333 332 331 332 330 328 329 325 328 325 325 310 292 296 266 276 279 302 270 322 309 307 291 259 244 233 210 225 250 222 243 237 252 216 208 199 260 225 225 224 239 238 237 240 243
332 326 331 333 329 328 329 325 333 329 339 315 288 295 264 273 271 281 294 298 303 292 294 263 239 217 218 207 226 231 228 220 191 190 211 234 248 236 211 219 228 237 239 241 244
325 333 330 330 328 328 328 335 347 331 314 290 266 266 276 290 294 298 306 302 294 276 251 256 244 227 217 218 228 239 239 239 233 238 196 224 247 236 227 232 232 236 238 246 249
333 328 329 328 329 331 329 331 335 308 304 292 277 271 269 282 286 298 338 269 271 266 289 253 252 231 231 225 223 228 238 246 259 229 240 251 257 240 222 234 244 242 246 247 252
328 329 329 330 328 332 325 333 330 321 291 297 287 266 278 283 233 273 230 303 227 276 255 241 250 242 235 233 234 236 238 240 240 216 237 234 265 251 241 234 247 243 245 251 250
325 329 329 333 330 323 325 333 331 324 287 271 271 284 325 290 262 268 305 283 225 239 260 243 260 243 254 256 222 234 225 232 239 235 242 171 261 246 236 235 236 247 244 245 249
325 327 331 333 317 314 326 337 326 322 312 275 300 301 331 303 286 296 290 266 251 248 226 251 232 232 241 237 224 229 218 217 224 234 243 218 252 246 217 232 228 241 250 244 250
324 328 334 332 324 326 323 333 320 48 257 308 303 327 326 312 301 281 276 278 248 255 251 247 244 216 203 293 224 229 197 216 217 217 235 231 221 255 206 223 237 240 249 245 249
327 331 335 327 316 323 330 336 19 140 326 294 319 318 310 300 296 274 296 284 251 287 264 271 233 240 248 248 253 254 196 215 219 216 236 220 221 238 220 233 236 238 243 248 245
327 332 335 328 328 326 339 41 109 247 259 302 301 304 282 276 264 274 287 282 270 242 280 292 317 166 187 203 213 207 237 206 210 192 226 161 209 229 223 246 246 245 245 252 251
331 335 337 316 321 326 339 48 216 245 297 308 316 302 287 278 273 339 238 250 250 236 294 304 286 305 208 186 194 192 224 325 319 4 63 201 280 309 175 232 235 247 243 254 257
336 336 332 316 308 321 49 248 227 258 303 305 291 251 287 295 302 329 301 244 273 248 201 275 288 310 265 115 204 180 166 196 220 215 217 243 263 217 223 216 229 247 237 268 277
339 324 303 307 313 293 191 232 271 294 306 273 288 287 286 292 237 241 271 287 237 302 304 254 238 293 282 192 180 187 218 171 119 169 86 46 267 214 237 217 237 263 295 304 297
331 308 315 299 309 344 247 211 301 296 303 275 265 272 278 287 278 262 253 252 336 335 308 222 269 270 255 201 250 183 234 184 135 220 221 156 266 245 184 271 289 309 308 311 295
285 268 299 292 263 267 289 281 260 285 291 302 277 289 320 315 303 238 273 287 323 343 297 314 284 307 337 44 27 147 197 161 141 106 197 147 262 19 9 4 337 296 319 309 276
305 287 283 235 263 234 279 267 283 279 275 269 283 288 330 310 252 285 302 311 326 299 309 308 310 311 298 309 296 273 53 245 214 192 178 214 268 351 355 341 321 333 342 300 272
287 252 255 275 260 230 167 267 296 311 243 305 293 315 324 307 282 256 288 298 288 299 353 51 274 284 297 290 292 42 22 342 322 72 225 241 140 37 335 316 311 324 338 292 258
295 306 297 274 281 287 272 262 292 296 283 301 284 309 310 295 287 294 294 292 278 314 26 337 275 357 300 349 13 65 13 18 41 355 22 338 355 11 314 348 350 347 328 311 275
313 307 292 306 286 211 250 257 293 311 299 283 295 305 299 282 279 279 282 273 258 275 296 295 325 348 274 32 52 24 349 13 82 31 341 24 315 327 336 344 4 359 350 308 286